Regional Weather Roundup
Issued by NWS

Home | Current Version | Previous Version | Graphics & Text | Print | Product List | Glossary On
Versions: 1 2 3 4 5 6 7 8 9 10 11 12 13 14 15 16 17 18 19 20 21 22 23 24 25 26 27 28 29 30 31 32 33 34 35 36 37 38 39 40 41 42 43 44 45 46 47 48 49 50
000
ASUS45 KTFX 201604
RWRMT
MONTANA HOURLY WEATHER ROUNDUP
NATIONAL WEATHER SERVICE GREAT FALLS MT
1004 AM MDT WED AUG 20 2014

NOTE: "FAIR" INDICATES FEW OR NO CLOUDS BELOW 12000 FEET WITH NO
SIGNIFICANT WEATHER AND/OR OBSTRUCTIONS TO VISIBILITY.

* THESE STATIONS ARE NOT UNDER NWS QUALITY CONTROL. THEY DO NOT
   REPORT WEATHER SUCH AS PRECIPITATION OR FOG.

MTZ001>007-043-201700-
WEST OF THE DIVIDE
CITY           SKY/WX    TMP DP  RH WIND       PRES   REMARKS
KALISPELL      CLOUDY    61  55  81 W5        29.86R
MISSOULA       LGT RAIN  57  54  90 NW6       29.93R
BUTTE          PTCLDY    61  45  56 CALM      29.98R
MULLAN PASS    CLOUDY    50  48  93 VRB5      29.98R
* ESSEX        N/A       58  53  84 N4         N/A
* LINCOLN      N/A       56  47  72 N1G6       N/A
* LOOKOUT PASS N/A       54  54 100 S2         N/A
* POLSON       N/A       61  59  93 S2         N/A
* RONAN APT    CLOUDY    59  55  87 S5         N/A
* SEELEY LAKE  N/A       54  52  93 NW2G7      N/A
* THOMP F APT  PTSUNNY   53  47  80 SW1        N/A
* YAAK HILL    N/A       61  55  81 SE2        N/A
$$

MTZ008-052>055-201700-
SOUTHWEST MONTANA
CITY           SKY/WX    TMP DP  RH WIND       PRES   REMARKS
BOZEMAN        PTSUNNY   61  48  62 S5        29.93R
DILLON         SUNNY     64  48  56 SW8       29.96R
W YELLOWSTONE  CLOUDY    48  46  93 CALM      30.09R
* THREE FORKS  PTCLDY    64  61  90 N/A        N/A
* BOULDER HILL N/A       64  41  43 S6         N/A
* RAYNOLDS PAS N/A       52  33  48 SE8        N/A
* WHITEHALL    N/A       60  49  67 N4         N/A
* WISE RIVER   N/A       53  46  77 NW3        N/A
$$

MTZ009>010-012-014-046-048-049-054-201700-
EAST SLOPES AND CENTRAL MONTANA
CITY           SKY/WX    TMP DP  RH WIND       PRES   REMARKS
CUT BANK       PTSUNNY   64  52  65 NE7       29.85R
GREAT FALLS    PTCLDY    70  50  49 SW7       29.84R
HELENA         PTCLDY    70  46  42 NE5       29.88R
MALMSTROM AFB  PTSUNNY   70  50  49 SW6       29.86R
* CONRAD       PTCLDY    66  59  78 N5         N/A
* DEARBORN     N/A       71  46  41 SW1        N/A
* EAST GLACIER N/A       59  46  62 W11G18     N/A
* MONARCH      N/A       63  43  48 S8         N/A
* PENDROY      N/A       67  47  49 N4         N/A
* ROGERS PASS  N/A       59  43  56 SE4G11     N/A
* SAINT MARY   N/A       57  46  67 NE4G10     N/A
* SWEET GRASS  N/A       60  58  93 N4         N/A
$$

MTZ011-013-016-021-035-040-045-047-050-051-201700-
NORTH CENTRAL MONTANA
CITY           SKY/WX    TMP DP  RH WIND       PRES   REMARKS
HAVRE          CLOUDY    64  55  73 VRB3      29.82R
LEWISTOWN      CLOUDY    70  46  42 NE6       29.87S
* CHESTER      N/A       66  52  61 SE2        N/A
* DENTON       N/A       71  49  46 W4G9       N/A
* GEYSER       N/A       68  47  47 NW8        N/A
* JUDITH GAP   N/A       67  49  53 VRB7       N/A
* LOMA         N/A       68  54  61 N9G14      N/A
$$

MTZ017>020-022>027-061-062-201700-
NORTHEAST MONTANA
CITY           SKY/WX    TMP DP  RH WIND       PRES   REMARKS
GLASGOW        PTSUNNY   72  61  68 NW13      29.70R
GLENDIVE       CLOUDY    70  54  57 W18G23    29.70S
JORDAN         CLOUDY    72  57  59 NW10      29.76R
SIDNEY         CLOUDY    72  64  76 W3        29.65F
WOLF POINT     PTSUNNY   73  55  53 SW6       29.67R
* BEAVER HILL  N/A       72  53  51 SW19G29    N/A
* CIRCLE       N/A       70  59  68 NW10       N/A
* LINDSAY DVD  N/A       68  51  55 SW9        N/A
* SACO         N/A       64  57  78 NW11       N/A
$$

MTZ028>042-056>058-201700-
SOUTHCENTRAL AND SOUTHEAST MONTANA
CITY           SKY/WX    TMP DP  RH WIND       PRES   REMARKS
BAKER          CLOUDY    75  61  62 CALM      29.71S
BILLINGS       CLOUDY    73  45  37 W7        29.86R
LIVINGSTON     CLOUDY    70  43  38 SW17G24   29.91R
MILES CITY     LGT RAIN  64  55  73 W14       29.74R
* LAUREL APT   CLOUDY    70  48  46 N/A        N/A
* ROUNDUP APT  CLOUDY    70  45  41 W8         N/A
* ALZADA       N/A       78  51  39 S7         N/A
* HYSHAM       N/A       72  45  38 W9         N/A
* LAME DEER    N/A       63  49  60 W10G16     N/A
* REED POINT   N/A       69  51  53 E6         N/A
* ROSCOE HILL  N/A       64  40  41 E8         N/A
$$

REGIONAL REPORTS...DAKOTAS
CITY           SKY/WX    TMP DP  RH WIND       PRES   REMARKS
WILLISTON      PTSUNNY   72  64  76 S6        29.64R
DICKINSON      CLOUDY    72  63  73 SW10      29.69R
BEACH          N/A       72  59  64 SE3       29.72R
CROSBY         PTSUNNY   68  66  93 SE5       29.66F
TIOGA          TSTM      64  64 100 E14       29.72F
WATFORD CITY   SUNNY     72  63  73 E6        29.65R
BISMARCK       CLOUDY    75  64  69 S13       29.72S
GRAND FORKS    PTCLDY    75  66  74 S10       29.77F
FARGO          PTCLDY    79  66  65 S10       29.79R
BUFFALO SD     CLOUDY    73  63  71 SE12      29.66S
RAPID CITY     CLOUDY    73  61  66 VRB3      29.75R
$$

REGIONAL REPORTS...WYOMING/IDAHO/WASHINGTON
CITY           SKY/WX    TMP DP  RH WIND       PRES   REMARKS
GILLETTE       SUNNY     77  45  32 NW16G30   29.81S
SHERIDAN       PTSUNNY   73  46  38 NW12      29.84R
CODY           PTSUNNY   70  46  42 NW10      29.93S
YELLOWSTONE LA PTSUNNY   54  45  72 SE5       30.15R
SALMON         PTCLDY    61  48  62 CALM      29.93S
MULLAN PASS    CLOUDY    50  48  93 VRB5      29.98S
SAND POINT     PTCLDY    64  57  78 CALM      29.83R
SPOKANE        CLOUDY    70  54  57 SW18      29.80R
$$

REGIONAL REPORTS...ALBERTA
CITY           SKY/WX    TMP DP  RH WIND       PRES   REMARKS
EDMONTON       LGT RAIN  55  52  90 NW7       29.87S

$$




USA.gov is the U.S. government's official web portal to all federal, state and local government web resources and services.